Regional Weather Roundup
Issued by NWS

Home | Current Version | Previous Version | Text Only | Print | Product List | Glossary On
Versions: 1 2 3 4 5 6 7 8 9 10 11 12 13 14 15 16 17 18 19 20 21 22 23 24 25 26 27 28 29 30 31 32 33 34 35 36 37 38 39 40 41 42 43 44 45 46 47 48 49 50
079
ASCA42 TJSJ 300910
RWRPR
PUERTO RICO/U.S. VIRGIN ISLANDS HOURLY WEATHER ROUNDUP
NATIONAL WEATHER SERVICE SAN JUAN PR
500 AM AST THU MAR 30 2017

PRZ001>002-007>008-010-301000-
PUERTO RICO

CITY           SKY/WX    TMP DP  RH WIND       PRES   REMARKS
SAN JUAN LMM   PTCLDY    77  72  83 N10       29.95R
CEIBA          MOCLDY    75  72  88 N6        29.96S
$$

VIZ001>002-301000-
U.S. VIRGIN ISLANDS

CITY           SKY/WX    TMP DP  RH WIND       PRES   REMARKS
CHARLOTTE AMA  MOCLDY    75  70  83 N10       29.93R
CHRISTIANSTED  MOCLDY    75  70  83 N6        29.94R
$$

HOURLY WEATHER ROUNDUP FOR THE NEWS MEDIA

CITY           SKY/WX    TMP DP  RH WIND       PRES   REMARKS
ORLANDO        CLEAR     67  60  78 S5        29.98F
NEW YORK       PTCLDY    38  23  55 N6        30.24R WCI  33
NEWARK         CLEAR     40  22  48 NW6       30.24R
CHICAGO        RAIN      42  39  89 E13       29.90F FOG
HARTFORD       CLEAR     32  23  69 VRB3      30.14R
BOSTON         PTCLDY    35  22  58 NW13      30.16R WCI  26
DALLAS         PTCLDY    56  43  61 NW9       29.84F
PHILADELPHIA   MOCLDY    40  24  53 NE8       30.23R WCI  34
LOS ANGELES    CLEAR     61  57  87 CALM      29.99F
WASHINGTON DC  MOCLDY    45  31  58 NE6       30.22R



USA.gov is the U.S. government's official web portal to all federal, state and local government web resources and services.